W2CJS Weather Reports


time (UTC)temp
C
wind
direction
speed
KPH
gust
KPH
rain 1hr
cm
rain 24hr
cm
rain mn
cm
humidity
%
barometer
mb
20260508060024 -1 0 0.0 0.0 0.00 0.03 0.00 89 1007.6
20260508055003 -1 0 0.0 0.0 0.00 0.03 0.00 89 1007.7
20260508054003 -1 144 0.0 1.6 0.00 0.03 0.00 89 1007.8
20260508053003 -1 0 0.0 0.0 0.00 0.03 0.00 89 1007.8
20260508052003 -1 144 0.0 3.2 0.00 0.03 0.00 88 1007.8
20260508051003 -1 144 0.0 3.2 0.00 0.03 0.00 88 1007.8
20260508050003 -1 144 1.6 4.8 0.00 0.03 0.00 88 1007.8
20260508045003 -1 145 1.6 4.8 0.00 0.03 0.00 88 1007.8
20260508044003 -1 151 0.0 3.2 0.00 0.03 0.00 88 1007.9
20260508043024 -1 191 0.0 3.2 0.00 0.03 0.00 87 1007.9
20260508042003 -1 0 0.0 0.0 0.00 0.03 0.00 87 1008.0
20260508041003 -1 191 1.6 3.2 0.00 0.03 0.00 87 1007.9
20260508040003 -1 0 0.0 0.0 0.00 0.03 0.00 86 1007.9
20260508035003 0 0 0.0 0.0 0.00 0.03 0.03 86 1007.9
20260508034003 0 191 0.0 1.6 0.00 0.03 0.03 86 1007.7
20260508033003 0 191 0.0 1.6 0.00 0.03 0.03 86 1007.8
20260508032003 0 191 0.0 3.2 0.00 0.03 0.03 85 1007.8
20260508031003 0 0 0.0 0.0 0.00 0.03 0.03 84 1007.9
20260508030024 0 0 0.0 0.0 0.00 0.03 0.03 84 1007.9
20260508025024 0 0 0.0 0.0 0.00 0.03 0.03 83 1007.9
20260508024003 0 191 0.0 3.2 0.00 0.03 0.03 83 1007.9
20260508023003 0 198 0.0 1.6 0.00 0.03 0.03 83 1008.0
20260508022024 0 198 0.0 3.2 0.00 0.03 0.03 82 1008.0
20260508021003 0 0 0.0 0.0 0.00 0.03 0.03 81 1008.1
20260508020003 1 0 0.0 0.0 0.00 0.03 0.03 80 1008.1
20260508015003 1 0 0.0 0.0 0.00 0.03 0.03 79 1008.0
20260508014003 1 0 0.0 0.0 0.00 0.03 0.03 78 1008.0
20260508013003 1 0 0.0 0.0 0.00 0.03 0.03 76 1007.9
20260508012003 2 0 0.0 0.0 0.00 0.03 0.03 75 1007.9
20260508011003 2 0 0.0 0.0 0.00 0.03 0.03 72 1007.7
20260508010003 3 0 0.0 0.0 0.00 0.03 0.03 71 1007.7
20260508005003 3 0 0.0 0.0 0.00 0.03 0.03 69 1007.5
20260508004003 4 0 0.0 0.0 0.00 0.03 0.03 67 1007.3
20260508003003 5 0 0.0 0.0 0.00 0.03 0.03 67 1007.1
20260508002003 5 0 0.0 0.0 0.00 0.03 0.03 62 1007.0
20260508001003 6 0 0.0 0.0 0.00 0.03 0.03 60 1007.0
20260508000003 6 189 0.0 6.4 0.00 0.03 0.03 56 1006.9
20260507235003 6 135 0.0 6.4 0.00 0.03 0.03 53 1006.9
20260507234003 7 181 0.0 9.7 0.00 0.03 0.03 56 1006.8
20260507233003 7 237 1.6 4.8 0.00 0.03 0.03 48 1006.8
20260507232003 7 189 1.6 4.8 0.00 0.03 0.03 48 1006.9
20260507231024 8 165 1.6 8.0 0.00 0.03 0.03 47 1006.9
20260507230004 8 359 1.6 4.8 0.00 0.03 0.03 48 1006.9
20260507225003 8 296 3.2 14.5 0.00 0.03 0.03 46 1006.9
20260507224003 8 329 3.2 12.9 0.00 0.03 0.03 46 1007.0
20260507223003 8 48 3.2 11.3 0.00 0.03 0.03 47 1007.0
20260507222003 8 39 3.2 9.7 0.00 0.03 0.03 51 1006.9
20260507221003 8 95 3.2 11.3 0.00 0.03 0.03 50 1007.1
20260507220003 8 223 6.4 17.7 0.00 0.05 0.03 49 1007.2
20260507215003 8 273 4.8 12.9 0.00 0.05 0.03 49 1007.2
20260507214024 7 272 3.2 12.9 0.00 0.05 0.03 49 1007.3
20260507213003 8 235 4.8 14.5 0.00 0.05 0.03 49 1007.2
20260507212003 7 302 3.2 11.3 0.00 0.08 0.03 48 1007.2
20260507211003 7 254 6.4 19.3 0.00 0.08 0.03 48 1007.2
20260507210003 7 230 4.8 12.9 0.00 0.08 0.03 49 1007.2
20260507205003 8 239 6.4 19.3 0.00 0.08 0.03 49 1007.1
20260507204003 7 227 6.4 17.7 0.00 0.08 0.03 50 1007.1
20260507203003 8 238 8.0 24.1 0.00 0.08 0.03 49 1007.2
20260507202024 8 220 6.4 16.1 0.00 0.08 0.03 49 1007.0
20260507201003 8 242 4.8 12.9 0.00 0.10 0.03 46 1007.1
20260507200003 8 229 6.4 16.1 0.00 0.10 0.03 50 1007.1
20260507195003 8 242 4.8 17.7 0.00 0.10 0.03 49 1007.2
20260507194003 8 240 8.0 25.7 0.00 0.10 0.03 46 1007.3
20260507193003 8 268 6.4 16.1 0.00 0.10 0.03 48 1007.3
20260507192003 8 271 6.4 16.1 0.00 0.13 0.03 46 1007.3
20260507191003 8 241 8.0 19.3 0.00 0.13 0.03 47 1007.3
20260507190024 9 242 8.0 22.5 0.00 0.13 0.03 47 1007.5
20260507185024 8 242 9.7 27.4 0.00 0.13 0.03 50 1007.4
20260507184003 8 225 8.0 22.5 0.00 0.13 0.03 51 1007.3
20260507183003 8 254 6.4 19.3 0.00 0.13 0.03 46 1007.4
20260507182003 8 263 6.4 16.1 0.00 0.13 0.03 45 1007.4
20260507181003 9 230 8.0 20.9 0.00 0.13 0.03 46 1007.2
20260507180003 9 246 6.4 16.1 0.00 0.13 0.03 45 1007.2
20260507175003 9 248 6.4 22.5 0.00 0.13 0.03 49 1007.2
20260507174003 8 263 8.0 22.5 0.00 0.15 0.03 46 1007.3
20260507173003 8 237 6.4 16.1 0.00 0.15 0.03 48 1007.3
20260507172003 8 242 8.0 24.1 0.00 0.15 0.03 50 1007.4
20260507171003 8 252 6.4 17.7 0.00 0.18 0.03 47 1007.5
20260507170003 8 235 11.3 30.6 0.00 0.18 0.03 48 1007.3
20260507165003 8 251 6.4 17.7 0.00 0.18 0.03 52 1007.4
20260507164003 8 259 9.7 24.1 0.00 0.23 0.03 50 1007.7
20260507163003 8 245 11.3 30.6 0.00 0.23 0.03 45 1007.8
20260507162003 8 238 9.7 22.5 0.00 0.25 0.03 47 1008.1
20260507161003 7 238 6.4 22.5 0.00 0.30 0.03 50 1007.9
20260507160003 7 240 9.7 25.7 0.00 0.36 0.03 50 1008.0
20260507155024 7 248 6.4 24.1 0.00 0.38 0.03 53 1008.0
20260507154003 7 276 6.4 17.7 0.00 0.43 0.03 51 1008.0
20260507153024 7 284 6.4 16.1 0.00 0.48 0.03 50 1008.3
20260507152003 7 236 8.0 19.3 0.00 0.53 0.03 53 1008.4
20260507151003 7 247 9.7 24.1 0.00 0.58 0.03 50 1008.3
20260507150004 7 239 12.9 32.2 0.00 0.69 0.03 50 1008.4
20260507145003 7 243 11.3 30.6 0.00 0.76 0.03 50 1008.4
20260507144003 7 245 8.0 20.9 0.00 0.84 0.03 53 1008.3
20260507143003 6 244 8.0 29.0 0.00 0.91 0.03 56 1008.3
20260507142003 6 249 11.3 27.4 0.00 0.99 0.03 56 1008.4
20260507141003 6 242 8.0 27.4 0.00 1.02 0.03 60 1008.3
20260507140003 5 244 8.0 22.5 0.00 1.07 0.03 60 1008.3
20260507135003 5 243 6.4 22.5 0.00 1.12 0.03 58 1008.4
20260507134024 5 261 6.4 17.7 0.00 1.22 0.03 61 1008.5
20260507133024 5 255 8.0 25.7 0.00 1.27 0.03 61 1008.4
20260507132003 5 232 8.0 27.4 0.00 1.32 0.03 65 1008.4
20260507131024 4 231 9.7 25.7 0.00 1.35 0.03 65 1008.5
20260507130003 4 236 6.4 22.5 0.00 1.40 0.03 67 1008.5
20260507125024 3 232 6.4 20.9 0.00 1.42 0.03 69 1008.6
20260507124024 3 228 4.8 17.7 0.00 1.45 0.03 73 1008.7
20260507123003 3 230 4.8 14.5 0.00 1.47 0.03 73 1008.8
20260507122004 2 239 3.2 11.3 0.00 1.50 0.03 75 1008.6
20260507121003 2 239 4.8 12.9 0.00 1.52 0.03 75 1008.8
20260507120004 2 232 3.2 17.7 0.00 1.55 0.03 76 1008.9
20260507115003 2 250 4.8 16.1 0.00 1.57 0.03 77 1008.9
20260507114003 2 148 1.6 8.0 0.00 1.63 0.03 82 1008.7
20260507113003 1 204 1.6 6.4 0.00 1.65 0.03 83 1008.8
20260507112003 1 219 1.6 11.3 0.00 1.70 0.03 83 1008.9
20260507111003 1 224 6.4 12.9 0.00 1.75 0.03 84 1008.8
20260507110024 1 228 6.4 14.5 0.00 1.78 0.03 85 1008.6
20260507105003 1 232 6.4 14.5 0.00 1.80 0.03 86 1008.4
20260507104003 1 230 4.8 14.5 0.00 1.80 0.03 86 1008.3
20260507103024 1 224 6.4 12.9 0.00 1.83 0.03 87 1008.4
20260507102003 1 221 4.8 11.3 0.00 1.85 0.03 88 1008.3
20260507101003 1 228 4.8 11.3 0.00 1.88 0.03 87 1008.2
20260507100003 1 222 3.2 8.0 0.00 1.88 0.03 87 1008.1
20260507095003 1 223 3.2 8.0 0.00 1.91 0.03 87 1007.9
20260507094003 1 220 6.4 12.9 0.00 1.93 0.03 86 1008.0
20260507093003 2 227 6.4 14.5 0.00 1.96 0.03 87 1008.1
20260507092003 2 225 6.4 14.5 0.00 1.98 0.03 88 1008.1
20260507091003 2 228 6.4 9.7 0.00 1.98 0.03 89 1007.9
20260507090004 2 224 6.4 12.9 0.00 1.98 0.03 88 1008.0
20260507085003 2 221 8.0 14.5 0.00 1.98 0.03 88 1007.9
20260507084024 2 229 4.8 6.4 0.00 1.98 0.03 91 1007.7
20260507083024 2 228 3.2 6.4 0.00 1.98 0.03 90 1007.5
20260507082003 3 227 3.2 8.0 0.00 1.98 0.03 91 1007.4
20260507081003 3 226 0.0 3.2 0.00 2.01 0.03 91 1007.4
20260507080004 3 226 3.2 6.4 0.00 2.03 0.03 90 1007.5
20260507075003 3 229 3.2 8.0 0.03 2.03 0.03 90 1007.6
20260507074003 3 214 1.6 6.4 0.03 2.06 0.03 89 1007.8
20260507073004 3 0 0.0 0.0 0.03 2.06 0.03 90 1007.7
20260507072024 3 0 0.0 0.0 0.03 2.06 0.03 89 1007.8
20260507071003 3 237 3.2 12.9 0.03 2.06 0.03 87 1007.9
20260507070004 3 231 8.0 20.9 0.03 2.06 0.03 88 1007.9
20260507065003 4 238 6.4 17.7 0.00 2.06 0.00 90 1007.8
20260507064003 5 235 4.8 9.7 0.00 2.06 0.00 92 1007.7
20260507063003 5 229 4.8 14.5 0.00 2.06 0.00 92 1007.6
20260507062003 5 209 4.8 11.3 0.00 2.06 0.00 92 1007.6
20260507061003 5 231 3.2 14.5 0.00 2.06 0.00 92 1007.7